Location: Burjasot
(39.5167°N, 0.4167°W)
Time: 14:42:53
(UTC+02:00)

ISS - Pass Details

Date: 23 May 2019
Orbit: 408 x 418 km, 51.6° (Epoch: 25 June)

Event Time Altitude Azimuth Distance (km) Brightness Sun altitude
Rises 01:47:24 0° 315° (NW) 2,365 0.7 -29.9°
Reaches altitude 10° 01:50:07 10° 338° (NNW) 1,502 -0.1 -30.0°
Enters shadow 01:51:35 15° 3° (N) 1,235 -0.6 -30.0°
